Location: G�migny
(47.9646°N, 1.6950°E)
Time: 22:01:37
(UTC+00:00)

STARLINK-81 - Pass Details

Date: 23 October 2019
Orbit: 548 x 551 km, 53.0° (Epoch: 10 November)

Event Time Altitude Azimuth Distance (km) Brightness Sun altitude
Rises 17:29:42 0° 281° (W) 2,717 8.7 -7.2°
Reaches altitude 10° 17:32:02 10° 289° (WNW) 1,824 7.4 -7.6°
Maximum altitude 17:35:58 40° 360° (N) 819 4.4 -8.2°
Enters shadow 17:39:41 11° 70° (ENE) 1,750 5.5 -8.9°
